Change the Weather History Date:

Thursday, May 29, 2014

  Actual Average Record
Temperature  
Mean Temperature 84 °F -  
Max Temperature 93 °F 86 °F 95 °F (2004)
Min Temperature 77 °F 69 °F 63 °F (2003)
Cooling Degree Days 19    
Growing Degree Days 34 (Base 50)    
Moisture  
Dew Point 71 °F    
Average Humidity 70    
Maximum Humidity 82    
Minimum Humidity 44    
Precipitation  
Precipitation 0.00 in - - ()
Sea Level Pressure  
Sea Level Pressure 30.02 in    
Wind  
Wind Speed 7 mph (SE)    
Max Wind Speed 13 mph    
Max Gust Speed -    
Visibility 10 miles    
Events Rain , Thunderstorm    
Averages and records for this station are not official NWS values.
T = Trace of Precipitation, MM = Missing Value Source: NWS Daily Summary

Daily Weather History Graph

Daily Weather History Graph

Search for Another Location

Airport or City:

Trip Planner

Search our weather history database for the weather conditions in past years. The results will help you decide how hot, cold, wet, or windy it might be!

Date:

Astronomy

May. 29, 2014 Rise Set
Actual Time 6:26 AM EDT 8:22 PM EDT
Civil Twilight 5:59 AM EDT 8:49 PM EDT
Nautical Twilight 5:26 AM EDT 9:21 PM EDT
Astronomical Twilight 4:52 AM EDT 9:56 PM EDT
Moon 7:15 AM EDT 9:14 PM EDT
Length of Visible Light 14h 49m
Length of Day
13h 55m
New Moon, 1% of the Moon is Illuminated
May 29
New Moon
Jun 5
First Quarter
Jun 13
Full
Jun 19
Last Quarter
Jun 27
New

Hourly Weather History & Observations

Time (EDT) Temp. Heat Index Dew Point Humidity Pressure Visibility Wind Dir Wind Speed Gust Speed Precip Events Conditions
12:53 AM 79.0 °F - 70.0 °F 74% 30.04 in 10.0 mi SE 6.9 mph - N/A   Scattered Clouds
1:53 AM 79.0 °F - 71.1 °F 77% 30.03 in 10.0 mi SSE 5.8 mph - N/A   Scattered Clouds
2:53 AM 79.0 °F - 71.1 °F 77% 30.00 in 10.0 mi South 6.9 mph - N/A   Partly Cloudy
3:53 AM 78.1 °F - 72.0 °F 81% 29.99 in 10.0 mi SSE 5.8 mph - N/A   Partly Cloudy
4:53 AM 78.1 °F - 71.1 °F 79% 30.00 in 10.0 mi SE 8.1 mph - N/A   Partly Cloudy
5:53 AM 77.0 °F - 71.1 °F 82% 30.00 in 10.0 mi SSE 6.9 mph - N/A   Scattered Clouds
6:53 AM 77.0 °F - 71.1 °F 82% 30.02 in 10.0 mi SSE 5.8 mph - N/A   Scattered Clouds
7:53 AM 78.1 °F - 72.0 °F 81% 30.02 in 9.0 mi SSE 8.1 mph - N/A   Scattered Clouds
8:53 AM 80.1 °F 83.8 °F 72.0 °F 76% 30.04 in 10.0 mi SSE 5.8 mph - N/A   Scattered Clouds
9:53 AM 82.0 °F 86.3 °F 71.1 °F 69% 30.04 in 10.0 mi SSE 5.8 mph - N/A   Scattered Clouds
10:53 AM 84.0 °F 88.4 °F 70.0 °F 63% 30.04 in 10.0 mi SSE 5.8 mph - N/A   Mostly Cloudy
11:53 AM 88.0 °F 90.7 °F 66.9 °F 49% 30.05 in 10.0 mi South 8.1 mph - N/A   Mostly Cloudy
12:53 PM 89.1 °F 92.1 °F 66.9 °F 48% 30.04 in 10.0 mi South 5.8 mph - N/A   Mostly Cloudy
1:52 PM 91.0 °F 93.8 °F 66.0 °F 44% 30.01 in 10.0 mi Variable 3.5 mph - N/A   Mostly Cloudy
1:53 PM 91.0 °F 93.8 °F 66.0 °F 44% 30.01 in 10.0 mi Variable 3.5 mph - N/A Thunderstorm Thunderstorm
2:53 PM 79.0 °F - 68.0 °F 69% 30.01 in 10.0 mi East 12.7 mph - 0.00 in Thunderstorm Thunderstorm
3:53 PM 81.0 °F 85.2 °F 72.0 °F 74% 30.01 in 10.0 mi ENE 5.8 mph - N/A   Overcast
4:53 PM 82.0 °F 87.4 °F 73.0 °F 74% 30.01 in 10.0 mi NNE 5.8 mph - 0.00 in Rain Light Rain
5:53 PM 80.1 °F 83.8 °F 72.0 °F 76% 29.99 in 10.0 mi North 8.1 mph - 0.00 in Rain Light Rain
6:53 PM 82.0 °F 86.3 °F 71.1 °F 69% 30.01 in 10.0 mi East 5.8 mph - 0.00 in   Overcast
7:53 PM 82.0 °F 86.7 °F 72.0 °F 71% 30.01 in 10.0 mi ESE 6.9 mph - N/A   Overcast
8:53 PM 81.0 °F 85.2 °F 72.0 °F 74% 30.02 in 10.0 mi SE 10.4 mph - N/A   Overcast
9:53 PM 81.0 °F 85.2 °F 72.0 °F 74% 30.04 in 10.0 mi SSE 6.9 mph - N/A   Overcast
10:53 PM 81.0 °F 85.2 °F 72.0 °F 74% 30.04 in 10.0 mi SE 5.8 mph - N/A   Mostly Cloudy
11:53 PM 79.0 °F - 71.1 °F 77% 30.04 in 10.0 mi SW 9.2 mph - N/A   Mostly Cloudy